When you browse on this site, cookies collect data to enhance your experience and personalize the content and advertising you see.
Visit our Privacy Policy to learn more. By continuing to use the site, you agree to this use of cookies and data.
  • In Sweden
  • List of Countries
  • For 7 days
  • Water Temperature
  • Weather Map
  • Weather Widgets
  • user-avatar
    Login

    Hourly Weather Bururi

    Today, 8 April, Wednesday

    Time Temperature Precipitation Wind Pressure Humidity
    00:00 +18°C° 0.3 mm 1 mps 616 mmHg 89%
    01:00 +18°C° 0.3 mm 1 mps 616 mmHg 89%
    02:00 +18°C° 0 mm 1 mps 616 mmHg 86%
    03:00 +16°C° 0 mm 1 mps 616 mmHg 86%
    04:00 +16°C° 0 mm 1 mps 616 mmHg 86%
    05:00 +16°C° 0 mm 1 mps 615 mmHg 86%
    06:00 +18°C° 0.1 mm 1 mps 616 mmHg 84%
    07:00 +17°C° 0.1 mm 0 mps 617 mmHg 83%
    08:00 +19°C° 0.1 mm 0 mps 618 mmHg 81%
    09:00 +22°C° 0.6 mm 1 mps 618 mmHg 80%
    10:00 +23°C° 0.6 mm 1 mps 618 mmHg 79%
    11:00 +23°C° 0.6 mm 2 mps 619 mmHg 78%
    12:00 +23°C° 1.6 mm 1 mps 618 mmHg 79%
    13:00 +23°C° 1.6 mm 1 mps 617 mmHg 79%
    14:00 +23°C° 1.6 mm 1 mps 616 mmHg 80%
    15:00 +23°C° 1.8 mm 1 mps 615 mmHg 83%
    16:00 +22°C° 1.8 mm 1 mps 615 mmHg 87%
    17:00 +22°C° 1.8 mm 1 mps 615 mmHg 90%
    18:00 +20°C° 1.8 mm 1 mps 615 mmHg 90%
    19:00 +19°C° 1.8 mm 1 mps 615 mmHg 90%
    20:00 +18°C° 1.8 mm 1 mps 616 mmHg 90%
    21:00 +18°C° 1 mm 1 mps 616 mmHg 89%
    22:00 +18°C° 1 mm 1 mps 616 mmHg 88%
    23:00 +18°C° 1 mm 1 mps 616 mmHg 87%

    Tomorrow, 9 April, Thursday

    Time Temperature Precipitation Wind Pressure Humidity
    00:00 +18°C° 0.8 mm 1 mps 616 mmHg 88%
    01:00 +18°C° 0.8 mm 1 mps 616 mmHg 88%
    02:00 +18°C° 0.8 mm 1 mps 615 mmHg 89%
    03:00 +18°C° 0.7 mm 1 mps 615 mmHg 89%
    04:00 +18°C° 0.7 mm 1 mps 615 mmHg 88%
    05:00 +18°C° 0.7 mm 1 mps 616 mmHg 88%
    06:00 +19°C° 0.3 mm 1 mps 616 mmHg 88%
    07:00 +19°C° 0.3 mm 1 mps 617 mmHg 88%
    08:00 +20°C° 0.3 mm 1 mps 618 mmHg 88%
    09:00 +20°C° 0.8 mm 1 mps 618 mmHg 89%
    10:00 +20°C° 0.8 mm 1 mps 617 mmHg 90%
    11:00 +20°C° 0.8 mm 1 mps 617 mmHg 90%
    12:00 +21°C° 0.8 mm 1 mps 617 mmHg 88%
    13:00 +22°C° 0.8 mm 1 mps 616 mmHg 85%
    14:00 +23°C° 0.8 mm 1 mps 616 mmHg 83%
    15:00 +22°C° 1.2 mm 1 mps 616 mmHg 85%
    16:00 +22°C° 1.2 mm 1 mps 616 mmHg 87%
    17:00 +22°C° 1.2 mm 1 mps 615 mmHg 89%
    18:00 +21°C° 1.2 mm 1 mps 616 mmHg 90%
    19:00 +20°C° 1.2 mm 1 mps 616 mmHg 90%
    20:00 +19°C° 1.2 mm 1 mps 616 mmHg 91%
    21:00 +19°C° 0.5 mm 1 mps 616 mmHg 91%
    22:00 +18°C° 0.5 mm 1 mps 616 mmHg 90%
    23:00 +18°C° 0.5 mm 1 mps 616 mmHg 90%

    Day after tomorrow, 10 April, Friday

    Time Temperature Precipitation Wind Pressure Humidity
    00:00 +18°C° 0.8 mm 1 mps 616 mmHg 92%
    01:00 +18°C° 0.8 mm 1 mps 616 mmHg 93%
    02:00 +18°C° 0.8 mm 1 mps 615 mmHg 94%
    03:00 +18°C° 0.8 mm 1 mps 616 mmHg 95%
    04:00 +18°C° 0.8 mm 1 mps 616 mmHg 95%
    05:00 +18°C° 0.8 mm 1 mps 616 mmHg 95%
    06:00 +18°C° 0.8 mm 1 mps 616 mmHg 95%
    07:00 +18°C° 0.8 mm 1 mps 617 mmHg 94%
    08:00 +18°C° 0.8 mm 1 mps 618 mmHg 94%
    09:00 +19°C° 1.1 mm 1 mps 618 mmHg 93%
    10:00 +19°C° 1.1 mm 2 mps 618 mmHg 92%
    11:00 +19°C° 1.1 mm 2 mps 618 mmHg 90%
    12:00 +20°C° 0.9 mm 2 mps 617 mmHg 88%
    13:00 +20°C° 0.9 mm 2 mps 617 mmHg 85%
    14:00 +21°C° 0.9 mm 2 mps 616 mmHg 82%
    15:00 +20°C° 0.5 mm 2 mps 616 mmHg 84%
    16:00 +21°C° 0.5 mm 1 mps 616 mmHg 86%
    17:00 +21°C° 0.5 mm 1 mps 615 mmHg 88%
    18:00 +20°C° 0.4 mm 1 mps 616 mmHg 89%
    19:00 +19°C° 0.4 mm 1 mps 616 mmHg 91%
    20:00 +18°C° 0.4 mm 1 mps 616 mmHg 93%
    21:00 +16°C° 0.3 mm 1 mps 616 mmHg 93%
    22:00 +16°C° 0.3 mm 1 mps 616 mmHg 94%
    23:00 +16°C° 0.3 mm 1 mps 616 mmHg 94%

    11 April, Saturday

    Time Temperature Precipitation Wind Pressure Humidity
    00:00 +16°C° 0.2 mm 1 mps 616 mmHg 93%
    01:00 +16°C° 0.2 mm 1 mps 615 mmHg 93%
    02:00 +16°C° 0.2 mm 1 mps 615 mmHg 92%
    03:00 +16°C° 0.1 mm 1 mps 615 mmHg 92%
    04:00 +16°C° 0.1 mm 1 mps 615 mmHg 92%
    05:00 +16°C° 0.1 mm 1 mps 615 mmHg 92%
    06:00 +18°C° 0.1 mm 1 mps 616 mmHg 90%
    07:00 +19°C° 0.1 mm 1 mps 617 mmHg 88%
    08:00 +20°C° 0.1 mm 1 mps 618 mmHg 87%
    09:00 +19°C° 0.3 mm 2 mps 618 mmHg 85%
    10:00 +20°C° 0.3 mm 2 mps 618 mmHg 84%
    11:00 +21°C° 0.3 mm 2 mps 617 mmHg 82%
    12:00 +21°C° 0.6 mm 2 mps 617 mmHg 83%
    13:00 +21°C° 0.6 mm 2 mps 616 mmHg 83%
    14:00 +21°C° 0.6 mm 2 mps 615 mmHg 84%
    15:00 +21°C° 0.3 mm 2 mps 615 mmHg 85%
    16:00 +22°C° 0.3 mm 1 mps 615 mmHg 86%
    17:00 +21°C° 0.3 mm 1 mps 615 mmHg 87%
    18:00 +20°C° 0.3 mm 1 mps 615 mmHg 89%
    19:00 +19°C° 0.3 mm 1 mps 615 mmHg 91%
    20:00 +18°C° 0.3 mm 1 mps 615 mmHg 93%
    21:00 +18°C° 0.2 mm 1 mps 615 mmHg 93%
    22:00 +16°C° 0.2 mm 1 mps 616 mmHg 93%
    23:00 +16°C° 0.2 mm 1 mps 616 mmHg 92%

    12 April, Sunday

    Time Temperature Precipitation Wind Pressure Humidity
    00:00 +16°C° 0.4 mm 1 mps 616 mmHg 92%
    01:00 +16°C° 0.4 mm 1 mps 615 mmHg 92%
    02:00 +16°C° 0.4 mm 1 mps 615 mmHg 92%
    03:00 +16°C° 0.1 mm 1 mps 615 mmHg 92%
    04:00 +16°C° 0.1 mm 1 mps 615 mmHg 92%
    05:00 +16°C° 0.1 mm 1 mps 615 mmHg 91%
    06:00 +18°C° 0.1 mm 1 mps 616 mmHg 90%
    07:00 +19°C° 0.1 mm 1 mps 617 mmHg 88%
    08:00 +20°C° 0.1 mm 1 mps 618 mmHg 86%
    09:00 +21°C° 0.7 mm 1 mps 618 mmHg 85%
    10:00 +21°C° 0.7 mm 1 mps 618 mmHg 85%
    11:00 +21°C° 0.7 mm 2 mps 618 mmHg 84%
    12:00 +21°C° 0.6 mm 2 mps 617 mmHg 83%
    13:00 +23°C° 0.6 mm 1 mps 616 mmHg 82%
    14:00 +23°C° 0.6 mm 1 mps 616 mmHg 81%
    15:00 +22°C° 0.4 mm 1 mps 615 mmHg 83%
    16:00 +22°C° 0.4 mm 1 mps 615 mmHg 85%
    17:00 +22°C° 0.4 mm 1 mps 615 mmHg 87%
    18:00 +20°C° 0.5 mm 1 mps 615 mmHg 89%
    19:00 +19°C° 0.5 mm 1 mps 615 mmHg 91%
    20:00 +18°C° 0.5 mm 1 mps 615 mmHg 93%
    21:00 +18°C° 0.2 mm 1 mps 615 mmHg 92%
    22:00 +18°C° 0.2 mm 1 mps 615 mmHg 91%
    23:00 +16°C° 0.2 mm 1 mps 616 mmHg 91%

    13 April, Monday

    Time Temperature Precipitation Wind Pressure Humidity
    00:00 +16°C° 0.3 mm 1 mps 615 mmHg 90%
    01:00 +16°C° 0.3 mm 1 mps 615 mmHg 90%
    02:00 +16°C° 0.3 mm 1 mps 615 mmHg 90%
    03:00 +16°C° 0.3 mm 1 mps 615 mmHg 90%
    04:00 +16°C° 0.3 mm 1 mps 615 mmHg 90%
    05:00 +16°C° 0.3 mm 1 mps 615 mmHg 91%
    06:00 +18°C° 0.1 mm 1 mps 616 mmHg 89%
    07:00 +19°C° 0.1 mm 1 mps 617 mmHg 87%
    08:00 +21°C° 0.1 mm 1 mps 618 mmHg 85%
    09:00 +21°C° 0.5 mm 1 mps 618 mmHg 82%
    10:00 +22°C° 0.5 mm 1 mps 618 mmHg 80%
    11:00 +23°C° 0.5 mm 2 mps 618 mmHg 78%
    12:00 +23°C° 1 mm 2 mps 617 mmHg 78%
    13:00 +23°C° 1 mm 1 mps 616 mmHg 79%
    14:00 +23°C° 1 mm 1 mps 616 mmHg 79%
    15:00 +23°C° 0.6 mm 1 mps 615 mmHg 82%
    16:00 +22°C° 0.6 mm 1 mps 615 mmHg 85%
    17:00 +20°C° 0.6 mm 0 mps 615 mmHg 88%
    18:00 +19°C° 0.9 mm 0 mps 615 mmHg 89%
    19:00 +19°C° 0.9 mm 1 mps 615 mmHg 91%
    20:00 +18°C° 0.9 mm 1 mps 615 mmHg 92%
    21:00 +18°C° 1 mm 1 mps 615 mmHg 91%
    22:00 +18°C° 1 mm 1 mps 616 mmHg 90%
    23:00 +18°C° 1 mm 1 mps 616 mmHg 89%
    Show more